Location: Alphen
(52.1351°N, 4.6549°E)
Time: 04:27:48
(UTC+00:00)

Cosmos 2322 Rocket - Visible Passes

Search period start: 13 May 2021 00:00
Search period end: 23 May 2021 00:00
Orbit: 831 x 852 km, 71.0° (Epoch: 12 May)

Date Brightness Start Highest point End Pass type
(mag) Time Alt. Az. Time Alt. Az. Time Alt. Az.
13 May 4.1 03:06:53 10° SSE 03:11:36 28° ESE 03:16:20 10° NE visible
14 May 4.1 02:51:57 10° SSE 02:56:34 26° ESE 03:01:14 10° NE visible
15 May 4.1 02:37:00 10° SSE 02:41:33 25° ESE 02:46:07 10° NE visible
16 May 4.1 02:22:05 10° SSE 02:26:31 24° ESE 02:31:01 10° NE visible
17 May 4.1 02:07:09 10° SSE 02:11:30 23° ESE 02:15:54 10° NE visible
18 May 4.1 01:52:14 10° SSE 01:56:30 22° ESE 02:00:47 10° NE visible
19 May 4.2 01:37:21 10° SSE 01:41:29 21° E 01:45:39 10° NE visible
20 May 4.2 01:22:27 10° SE 01:26:28 20° E 01:30:32 10° NE visible
21 May 4.2 01:07:33 10° SE 01:11:28 19° E 01:15:24 10° NE visible
21 May 2.3 02:49:05 10° SSW 02:54:47 87° WNW 03:00:33 10° NNE visible
22 May 4.2 00:52:40 10° SE 00:56:27 19° E 01:00:15 10° ENE visible
22 May 2.3 02:34:02 10° SSW 02:39:44 90° NW 02:45:30 10° NNE visible
